Weather History for Crossville, TN

Change the Weather History Date:

Sunday, December 9, 2012

  Actual Average Record
Temperature  
Mean Temperature 61 °F 40 °F  
Max Temperature 64 °F 48 °F 68 °F (2007)
Min Temperature 58 °F 31 °F 6 °F (1995)
Degree Days  
Heating Degree Days 4    
Month to date heating degree days 82  
Since 1 July heating degree days 1047  
Cooling Degree Days 0    
Month to date cooling degree days 0  
Year to date cooling degree days 1156  
Growing Degree Days 10 (Base 50)    
Moisture  
Dew Point 55 °F    
Average Humidity 83    
Maximum Humidity 93    
Minimum Humidity 72    
Precipitation  
Precipitation 0.17 in 0.17 in 2.61 in (2004)
Month to date precipitation 0.22 1.58  
Year to date precipitation 41.99 51.72  
Sea Level Pressure  
Sea Level Pressure 29.97 in    
Wind  
Wind Speed 7 mph (South)    
Max Wind Speed 14 mph    
Max Gust Speed 23 mph    
Visibility 9 miles    
Events Rain    
T = Trace of Precipitation, MM = Missing Value Source: NWS Daily Summary

Daily Weather History Graph

Daily Weather History Graph

Search for Another Location

Airport:

Trip Planner

Search our weather history database for the weather conditions in past years. The results will help you decide how hot, cold, wet, or windy it might be!

Date:

Astronomy

Dec. 09, 2012 Rise Set
Actual Time 6:39 AM CST 4:26 PM CST
Civil Twilight 6:11 AM CST 4:54 PM CST
Nautical Twilight 5:39 AM CST 5:26 PM CST
Astronomical Twilight 5:07 AM CST 5:57 PM CST
Moon 2:17 AM CST (12/9) 1:27 PM CST (12/9)
Length of Visible Light 10h 43m
Length of Day
9h 46m
Waning Crescent, 18% of the Moon is Illuminated
Dec 9
Waning Crescent
Dec 13
New
Dec 19
First Quarter
Dec 28
Full
Jan 4
Last Quarter

Hourly Weather History & Observations

Time (CST) Temp. Dew Point Humidity Pressure Visibility Wind Dir Wind Speed Gust Speed Precip Events Conditions
12:09 AM 59.0 °F 55.4 °F 88% 30.01 in 10.0 mi South 5.8 mph - N/A   Mostly Cloudy
12:35 AM 59.0 °F 55.4 °F 88% 30.02 in 10.0 mi South 4.6 mph - N/A   Overcast
12:50 AM 59.0 °F 55.4 °F 88% 30.02 in 10.0 mi Variable 4.6 mph - N/A   Overcast
12:53 AM 59.0 °F 55.0 °F 87% 29.99 in 10.0 mi Variable 4.6 mph - N/A   Overcast
1:53 AM 59.0 °F 55.0 °F 87% 29.99 in 10.0 mi South 4.6 mph - N/A   Mostly Cloudy
2:53 AM 59.0 °F 55.0 °F 87% 29.99 in 10.0 mi Variable 5.8 mph - N/A   Overcast
3:53 AM 59.0 °F 55.0 °F 87% 29.98 in 10.0 mi South 3.5 mph - N/A   Overcast
4:45 AM 59.0 °F 55.4 °F 88% 30.02 in 10.0 mi South 6.9 mph - N/A   Overcast
4:53 AM 59.0 °F 55.0 °F 87% 29.99 in 10.0 mi SSE 5.8 mph - N/A   Overcast
5:53 AM 57.9 °F 55.0 °F 90% 30.00 in 9.0 mi South 6.9 mph - N/A   Overcast
6:37 AM 59.0 °F 55.4 °F 88% 30.02 in 8.0 mi SSE 5.8 mph - N/A   Mostly Cloudy
6:53 AM 59.0 °F 55.0 °F 87% 30.00 in 6.0 mi South 4.6 mph - N/A   Overcast
7:31 AM 60.8 °F 55.4 °F 82% 30.02 in 8.0 mi SSE 6.9 mph - N/A   Overcast
7:46 AM 60.8 °F 55.4 °F 82% 30.02 in 8.0 mi South 5.8 mph - N/A   Overcast
7:53 AM 60.1 °F 55.9 °F 86% 30.00 in 8.0 mi Variable 5.8 mph - N/A   Overcast
8:04 AM 60.8 °F 55.4 °F 82% 30.03 in 9.0 mi Variable 4.6 mph - N/A   Overcast
8:38 AM 60.8 °F 55.4 °F 82% 30.03 in 8.0 mi South 8.1 mph - 0.02 in   Overcast
8:53 AM 60.1 °F 55.9 °F 86% 30.01 in 8.0 mi South 8.1 mph - 0.02 in   Overcast
9:53 AM 62.1 °F 55.9 °F 80% 30.01 in 10.0 mi South 11.5 mph 18.4 mph N/A   Overcast
10:18 AM 62.6 °F 55.4 °F 77% 30.02 in 10.0 mi Variable 5.8 mph 18.4 mph N/A   Overcast
10:53 AM 63.0 °F 55.9 °F 78% 29.98 in 10.0 mi Variable 6.9 mph 19.6 mph N/A   Overcast
11:53 AM 63.0 °F 55.0 °F 75% 29.95 in 10.0 mi South 9.2 mph 20.7 mph N/A   Overcast
12:02 PM 62.6 °F 55.4 °F 77% 29.98 in 10.0 mi South 11.5 mph 20.7 mph N/A   Overcast
12:46 PM 62.6 °F 55.4 °F 77% 29.97 in 3.0 mi Variable 4.6 mph - 0.03 in Rain Light Rain
12:53 PM 62.1 °F 55.9 °F 80% 29.94 in 2.5 mi Variable 5.8 mph - 0.06 in Rain Rain
1:04 PM 60.8 °F 55.4 °F 82% 29.97 in 1.2 mi SW 3.5 mph - 0.06 in Rain Rain
1:16 PM 60.8 °F 57.2 °F 88% 29.97 in 3.0 mi Variable 3.5 mph - 0.08 in Rain Light Rain
1:26 PM 60.8 °F 57.2 °F 88% 29.97 in 10.0 mi SSE 4.6 mph - 0.08 in Rain Light Rain
1:53 PM 62.1 °F 57.0 °F 84% 29.93 in 10.0 mi South 5.8 mph - 0.08 in   Overcast
2:30 PM 62.6 °F 55.4 °F 77% 29.96 in 10.0 mi South 6.9 mph - N/A   Overcast
2:53 PM 62.1 °F 55.9 °F 80% 29.93 in 10.0 mi South 9.2 mph - N/A   Mostly Cloudy
3:53 PM 62.1 °F 55.0 °F 78% 29.93 in 10.0 mi South 5.8 mph - N/A   Overcast
4:53 PM 62.1 °F 55.0 °F 78% 29.92 in 10.0 mi South 8.1 mph - N/A   Overcast
5:53 PM 62.1 °F 55.0 °F 78% 29.91 in 10.0 mi South 6.9 mph 18.4 mph N/A   Scattered Clouds
6:53 PM 61.0 °F 54.0 °F 78% 29.91 in 10.0 mi South 8.1 mph 19.6 mph 0.01 in   Clear
7:53 PM 61.0 °F 53.1 °F 75% 29.89 in 10.0 mi South 9.2 mph 20.7 mph N/A   Clear
8:53 PM 61.0 °F 52.0 °F 72% 29.88 in 10.0 mi South 9.2 mph 18.4 mph N/A   Partly Cloudy
9:53 PM 61.0 °F 52.0 °F 72% 29.86 in 10.0 mi South 11.5 mph 20.7 mph N/A   Clear
10:53 PM 60.1 °F 52.0 °F 75% 29.84 in 10.0 mi South 8.1 mph 17.3 mph N/A   Clear
11:53 PM 60.1 °F 51.1 °F 72% 29.81 in 10.0 mi Variable 6.9 mph 16.1 mph N/A   Clear